Time,TemperatureF,DewpointF,PressureIn,WindDirection,WindDirectionDegrees,WindSpeedMPH,WindSpeedGustMPH,Humidity,HourlyPrecipIn,Conditions,Clouds,dailyrainin,SoftwareType,DateUTC
2013-07-04 00:02:00,55.0,51.0,30.24,North,359,0.0,0.0,86,0.00,,,-99.99,,2013-07-04 04:02:00,
2013-07-04 00:11:00,55.0,51.0,30.24,North,359,0.0,0.0,86,0.00,,,-99.99,,2013-07-04 04:11:00,
2013-07-04 00:33:00,56.0,52.0,30.26,North,359,0.0,0.0,85,0.00,,,-99.99,,2013-07-04 04:33:00,
2013-07-04 00:43:00,56.0,52.0,30.26,North,359,0.0,0.0,85,0.00,,,-99.99,,2013-07-04 04:43:00,
2013-07-04 01:02:00,57.0,53.0,30.26,North,359,0.0,0.0,87,0.00,,,-99.99,,2013-07-04 05:02:00,
2013-07-04 01:33:00,57.0,53.0,30.26,North,359,0.0,0.0,88,0.00,,,-99.99,,2013-07-04 05:33:00,
2013-07-04 01:43:00,57.0,53.0,30.26,North,359,0.0,0.0,88,0.00,,,-99.99,,2013-07-04 05:43:00,
2013-07-04 01:52:00,57.0,53.0,30.26,North,359,0.0,0.0,88,0.00,,,-99.99,,2013-07-04 05:52:00,
2013-07-04 02:01:00,57.0,53.0,30.26,North,359,0.0,0.0,88,0.00,,,-99.99,,2013-07-04 06:01:00,
2013-07-04 02:22:00,57.0,53.0,30.25,North,359,0.0,0.0,88,0.00,,,-99.99,,2013-07-04 06:22:00,
2013-07-04 02:34:00,57.0,53.0,30.24,North,359,0.0,0.0,88,0.01,,,-99.99,,2013-07-04 06:34:00,
2013-07-04 02:43:00,57.0,53.0,30.24,North,359,0.0,0.0,88,0.01,,,-99.99,,2013-07-04 06:43:00,
2013-07-04 02:52:00,57.0,53.0,30.23,North,359,0.0,0.0,88,0.05,,,-99.99,,2013-07-04 06:52:00,
2013-07-04 03:02:00,57.0,53.0,30.23,North,359,0.0,0.0,88,0.05,,,-99.99,,2013-07-04 07:02:00,
2013-07-04 03:12:00,57.0,53.0,30.23,North,359,0.0,0.0,88,0.05,,,-99.99,,2013-07-04 07:12:00,
2013-07-04 03:22:00,57.0,53.0,30.23,North,359,0.0,0.0,88,0.05,,,-99.99,,2013-07-04 07:22:00,
2013-07-04 03:34:00,58.0,54.0,30.23,North,359,0.0,0.0,87,0.07,,,-99.99,,2013-07-04 07:34:00,
2013-07-04 03:52:00,58.0,54.0,30.23,North,359,0.0,0.0,87,0.06,,,-99.99,,2013-07-04 07:52:00,
2013-07-04 04:02:00,58.0,54.0,30.23,North,359,0.0,0.0,86,0.05,,,-99.99,,2013-07-04 08:02:00,
2013-07-04 04:11:00,58.0,54.0,30.23,North,359,0.0,0.0,86,0.06,,,-99.99,,2013-07-04 08:11:00,
2013-07-04 04:22:00,58.0,54.0,30.23,North,359,0.0,0.0,86,0.06,,,-99.99,,2013-07-04 08:22:00,
2013-07-04 04:33:00,58.0,54.0,30.23,North,359,0.0,0.0,86,0.06,,,-99.99,,2013-07-04 08:33:00,
2013-07-04 04:42:00,58.0,54.0,30.23,North,359,0.0,0.0,86,0.06,,,-99.99,,2013-07-04 08:42:00,
2013-07-04 04:53:00,59.0,55.0,30.23,North,359,0.0,0.0,86,0.11,,,-99.99,,2013-07-04 08:53:00,
2013-07-04 05:02:00,59.0,54.0,30.23,North,359,0.0,0.0,85,0.11,,,-99.99,,2013-07-04 09:02:00,
2013-07-04 05:11:00,59.0,54.0,30.23,North,359,0.0,0.0,85,0.11,,,-99.99,,2013-07-04 09:11:00,
2013-07-04 05:22:00,59.0,54.0,30.24,North,359,0.0,0.0,85,0.17,,,-99.99,,2013-07-04 09:22:00,
2013-07-04 05:32:00,59.0,54.0,30.24,North,359,0.0,0.0,85,0.17,,,-99.99,,2013-07-04 09:32:00,
2013-07-04 05:42:00,59.0,54.0,30.24,North,359,0.0,0.0,85,0.17,,,-99.99,,2013-07-04 09:42:00,
2013-07-04 05:52:00,59.0,54.0,30.24,North,359,0.0,0.0,85,0.17,,,-99.99,,2013-07-04 09:52:00,
2013-07-04 06:01:00,59.0,54.0,30.24,North,359,0.0,0.0,85,0.18,,,-99.99,,2013-07-04 10:01:00,
2013-07-04 06:34:00,59.0,54.0,30.23,North,359,0.0,0.0,85,0.10,,,-99.99,,2013-07-04 10:34:00,
2013-07-04 06:43:00,59.0,54.0,30.24,North,359,0.0,0.0,85,0.07,,,-99.99,,2013-07-04 10:43:00,
2013-07-04 06:53:00,59.0,54.0,30.24,North,359,0.0,0.0,85,0.07,,,-99.99,,2013-07-04 10:53:00,
2013-07-04 07:02:00,59.0,54.0,30.25,North,359,0.0,0.0,84,0.02,,,-99.99,,2013-07-04 11:02:00,
2013-07-04 07:11:00,59.0,54.0,30.26,North,359,0.0,0.0,84,0.01,,,-99.99,,2013-07-04 11:11:00,
2013-07-04 07:22:00,59.0,54.0,30.26,North,359,0.0,0.0,84,0.01,,,-99.99,,2013-07-04 11:22:00,
2013-07-04 07:34:00,59.0,54.0,30.26,North,359,0.0,0.0,84,0.00,,,-99.99,,2013-07-04 11:34:00,
2013-07-04 07:43:00,60.0,55.0,30.26,North,359,0.0,0.0,84,0.00,,,-99.99,,2013-07-04 11:43:00,
2013-07-04 07:53:00,60.0,55.0,30.26,North,359,0.0,0.0,84,0.00,,,-99.99,,2013-07-04 11:53:00,
2013-07-04 08:02:00,60.0,55.0,30.27,North,359,0.0,0.0,83,0.00,,,-99.99,,2013-07-04 12:02:00,
2013-07-04 08:43:00,60.0,55.0,30.27,North,359,0.0,0.0,83,0.00,,,-99.99,,2013-07-04 12:43:00,
2013-07-04 08:52:00,60.0,55.0,30.27,North,359,0.0,0.0,83,0.00,,,-99.99,,2013-07-04 12:52:00,
2013-07-04 09:23:00,60.0,55.0,30.28,North,359,0.0,0.0,83,0.06,,,-99.99,,2013-07-04 13:23:00,
2013-07-04 09:33:00,60.0,55.0,30.28,North,359,0.0,0.0,83,0.06,,,-99.99,,2013-07-04 13:33:00,
2013-07-04 09:43:00,60.0,55.0,30.28,North,359,0.0,0.0,83,0.06,,,-99.99,,2013-07-04 13:43:00,
2013-07-04 10:02:00,60.0,54.0,30.27,North,359,0.0,0.0,82,0.11,,,-99.99,,2013-07-04 14:02:00,
2013-07-04 10:12:00,60.0,54.0,30.27,North,359,0.0,0.0,82,0.11,,,-99.99,,2013-07-04 14:12:00,
2013-07-04 10:22:00,60.0,54.0,30.27,North,359,0.0,0.0,82,0.10,,,-99.99,,2013-07-04 14:22:00,
2013-07-04 10:33:00,60.0,54.0,30.27,North,359,0.0,0.0,82,0.10,,,-99.99,,2013-07-04 14:33:00,
2013-07-04 10:43:00,60.0,54.0,30.27,North,359,0.0,0.0,82,0.02,,,-99.99,,2013-07-04 14:43:00,
2013-07-04 10:53:00,60.0,54.0,30.28,North,359,0.0,0.0,82,0.03,,,-99.99,,2013-07-04 14:53:00,
2013-07-04 11:02:00,60.0,54.0,30.28,North,359,0.0,0.0,82,0.03,,,-99.99,,2013-07-04 15:02:00,
2013-07-04 11:11:00,60.0,54.0,30.27,North,359,0.0,0.0,82,0.04,,,-99.99,,2013-07-04 15:11:00,
2013-07-04 11:23:00,61.0,55.0,30.27,North,359,0.0,0.0,82,0.04,,,-99.99,,2013-07-04 15:23:00,
2013-07-04 11:33:00,61.0,55.0,30.27,North,359,0.0,0.0,82,0.04,,,-99.99,,2013-07-04 15:33:00,
2013-07-04 11:43:00,61.0,55.0,30.27,North,359,0.0,0.0,82,0.04,,,-99.99,,2013-07-04 15:43:00,
2013-07-04 11:52:00,61.0,55.0,30.28,North,359,0.0,0.0,81,0.01,,,-99.99,,2013-07-04 15:52:00,
2013-07-04 12:02:00,61.0,55.0,30.28,North,359,0.0,0.0,81,0.01,,,-99.99,,2013-07-04 16:02:00,
2013-07-04 12:11:00,61.0,55.0,30.28,North,359,0.0,0.0,81,0.01,,,-99.99,,2013-07-04 16:11:00,
2013-07-04 12:22:00,61.0,55.0,30.28,North,359,0.0,0.0,80,0.01,,,-99.99,,2013-07-04 16:22:00,
2013-07-04 12:33:00,61.0,55.0,30.28,North,359,0.0,0.0,80,0.01,,,-99.99,,2013-07-04 16:33:00,
2013-07-04 12:43:00,61.0,55.0,30.28,North,359,0.0,0.0,80,0.01,,,-99.99,,2013-07-04 16:43:00,
2013-07-04 12:52:00,62.0,56.0,30.28,North,359,0.0,0.0,80,0.01,,,-99.99,,2013-07-04 16:52:00,
2013-07-04 13:01:00,62.0,56.0,30.28,North,359,0.0,0.0,80,0.01,,,-99.99,,2013-07-04 17:01:00,
2013-07-04 13:12:00,62.0,56.0,30.28,North,359,0.0,0.0,80,0.01,,,-99.99,,2013-07-04 17:12:00,
2013-07-04 13:22:00,62.0,56.0,30.27,North,359,0.0,0.0,80,0.01,,,-99.99,,2013-07-04 17:22:00,
2013-07-04 13:34:00,62.0,56.0,30.27,North,359,0.0,0.0,80,0.01,,,-99.99,,2013-07-04 17:34:00,
2013-07-04 13:43:00,62.0,56.0,30.27,North,359,0.0,0.0,80,0.01,,,-99.99,,2013-07-04 17:43:00,
2013-07-04 13:53:00,62.0,56.0,30.26,North,359,0.0,0.0,80,0.01,,,-99.99,,2013-07-04 17:53:00,
2013-07-04 14:01:00,62.0,56.0,30.26,North,359,0.0,0.0,80,0.01,,,-99.99,,2013-07-04 18:01:00,
2013-07-04 14:11:00,62.0,56.0,30.26,North,359,0.0,0.0,80,0.00,,,-99.99,,2013-07-04 18:11:00,
2013-07-04 14:22:00,62.0,56.0,30.26,North,359,0.0,0.0,80,0.00,,,-99.99,,2013-07-04 18:22:00,
2013-07-04 14:33:00,63.0,57.0,30.25,North,359,0.0,0.0,80,0.00,,,-99.99,,2013-07-04 18:33:00,
2013-07-04 14:43:00,63.0,56.0,30.25,North,359,0.0,0.0,79,0.00,,,-99.99,,2013-07-04 18:43:00,
2013-07-04 14:52:00,62.0,56.0,30.26,North,359,0.0,0.0,80,0.00,,,-99.99,,2013-07-04 18:52:00,
2013-07-04 15:02:00,62.0,56.0,30.26,North,359,0.0,0.0,80,0.01,,,-99.99,,2013-07-04 19:02:00,
2013-07-04 15:12:00,62.0,56.0,30.26,North,359,0.0,0.0,80,0.28,,,-99.99,,2013-07-04 19:12:00,
2013-07-04 15:22:00,62.0,56.0,30.26,North,359,0.0,0.0,80,0.28,,,-99.99,,2013-07-04 19:22:00,
2013-07-04 15:33:00,63.0,56.0,30.25,North,359,0.0,0.0,79,0.31,,,-99.99,,2013-07-04 19:33:00,
2013-07-04 15:43:00,63.0,56.0,30.25,North,359,0.0,0.0,79,0.31,,,-99.99,,2013-07-04 19:43:00,
2013-07-04 15:53:00,63.0,56.0,30.25,North,359,0.0,0.0,79,0.31,,,-99.99,,2013-07-04 19:53:00,
2013-07-04 16:02:00,63.0,56.0,30.25,North,359,0.0,0.0,79,0.31,,,-99.99,,2013-07-04 20:02:00,
2013-07-04 16:11:00,63.0,56.0,30.25,North,359,0.0,0.0,79,0.31,,,-99.99,,2013-07-04 20:11:00,
2013-07-04 16:22:00,62.0,55.0,30.25,North,359,0.0,0.0,79,0.09,,,-99.99,,2013-07-04 20:22:00,
2013-07-04 16:34:00,62.0,55.0,30.25,North,359,0.0,0.0,79,0.09,,,-99.99,,2013-07-04 20:34:00,
2013-07-04 16:42:00,62.0,55.0,30.25,North,359,0.0,0.0,79,0.09,,,-99.99,,2013-07-04 20:42:00,
2013-07-04 16:53:00,63.0,56.0,30.24,North,359,0.0,0.0,79,0.10,,,-99.99,,2013-07-04 20:53:00,
2013-07-04 17:01:00,63.0,56.0,30.24,North,359,0.0,0.0,79,0.10,,,-99.99,,2013-07-04 21:01:00,
2013-07-04 17:12:00,61.0,55.0,30.24,North,359,0.0,0.0,80,0.34,,,-99.99,,2013-07-04 21:12:00,
2013-07-04 17:22:00,62.0,56.0,30.24,North,359,0.0,0.0,80,0.34,,,-99.99,,2013-07-04 21:22:00,
2013-07-04 17:32:00,62.0,56.0,30.24,North,359,0.0,0.0,80,0.34,,,-99.99,,2013-07-04 21:32:00,
2013-07-04 17:43:00,62.0,55.0,30.24,North,359,0.0,0.0,79,0.34,,,-99.99,,2013-07-04 21:43:00,
2013-07-04 17:53:00,63.0,56.0,30.23,North,359,0.0,0.0,79,0.26,,,-99.99,,2013-07-04 21:53:00,
2013-07-04 18:02:00,63.0,56.0,30.23,North,359,0.0,0.0,79,0.26,,,-99.99,,2013-07-04 22:02:00,
2013-07-04 18:12:00,63.0,56.0,30.24,North,359,0.0,0.0,78,0.00,,,-99.99,,2013-07-04 22:12:00,
2013-07-04 18:22:00,63.0,56.0,30.24,North,359,0.0,0.0,78,0.00,,,-99.99,,2013-07-04 22:22:00,
2013-07-04 18:33:00,60.0,54.0,30.26,North,359,0.0,0.0,81,0.38,,,-99.99,,2013-07-04 22:33:00,
2013-07-04 18:43:00,60.0,54.0,30.26,North,359,0.0,0.0,81,0.38,,,-99.99,,2013-07-04 22:43:00,
2013-07-04 18:52:00,60.0,54.0,30.26,North,359,0.0,0.0,81,0.38,,,-99.99,,2013-07-04 22:52:00,
2013-07-04 19:01:00,60.0,54.0,30.26,North,359,0.0,0.0,81,0.38,,,-99.99,,2013-07-04 23:01:00,
2013-07-04 19:12:00,61.0,55.0,30.24,North,359,0.0,0.0,80,0.38,,,-99.99,,2013-07-04 23:12:00,
2013-07-04 19:23:00,61.0,54.0,30.24,North,359,0.0,0.0,79,0.09,,,-99.99,,2013-07-04 23:23:00,
2013-07-04 19:33:00,62.0,55.0,30.23,North,359,0.0,0.0,79,0.00,,,-99.99,,2013-07-04 23:33:00,
2013-07-04 19:43:00,62.0,55.0,30.23,North,359,0.0,0.0,79,0.00,,,-99.99,,2013-07-04 23:43:00,
2013-07-04 19:52:00,62.0,55.0,30.23,North,359,0.0,0.0,79,0.00,,,-99.99,,2013-07-04 23:52:00,
2013-07-04 20:01:00,62.0,55.0,30.23,North,359,0.0,0.0,79,0.00,,,-99.99,,2013-07-05 00:01:00,
2013-07-04 20:11:00,61.0,54.0,30.24,North,359,0.0,0.0,79,0.00,,,-99.99,,2013-07-05 00:11:00,
2013-07-04 20:22:00,61.0,54.0,30.24,North,359,0.0,0.0,79,0.00,,,-99.99,,2013-07-05 00:22:00,
2013-07-04 20:31:00,61.0,54.0,30.25,North,359,0.0,0.0,79,0.06,,,-99.99,,2013-07-05 00:31:00,
2013-07-04 20:32:00,61.0,54.0,30.24,North,359,0.0,0.0,79,0.00,,,-99.99,,2013-07-05 00:32:00,
2013-07-04 20:43:00,61.0,54.0,30.24,North,359,0.0,0.0,79,0.00,,,-99.99,,2013-07-05 00:43:00,
2013-07-04 20:52:00,61.0,54.0,30.25,North,359,0.0,0.0,79,0.06,,,-99.99,,2013-07-05 00:52:00,
2013-07-04 21:01:00,61.0,54.0,30.25,North,359,0.0,0.0,79,0.06,,,-99.99,,2013-07-05 01:01:00,
2013-07-04 21:11:00,61.0,54.0,30.25,North,359,0.0,0.0,79,0.06,,,-99.99,,2013-07-05 01:11:00,
2013-07-04 21:22:00,61.0,54.0,30.25,North,359,0.0,0.0,79,0.06,,,-99.99,,2013-07-05 01:22:00,